Location: Fairmont
(43.6520°N, 94.4610°W)
Time: 16:47:32
(UTC-05:00)

Daily predictions for brighter satellites

Satellite Brightness Start Highest point End
(mag) Time Altitude Azimuth Time Altitude Azimuth Time Altitude Azimuth
HJ-1C 4.4 20:36:50 10° S 20:40:12 50° W 20:43:35 10° NNW
Cosmos 1242 Rocket 3.5 20:36:59 10° SSW 20:40:36 55° WNW 20:44:12 10° N
ERS-1 Rocket 4.4 20:42:56 10° ESE 20:46:43 22° ENE 20:50:32 10° NNE
Cosmos 1408 3.9 20:43:44 10° NNE 20:46:47 23° ENE 20:49:47 10° SE
Cosmos 1486 Rocket 4.1 20:42:01 10° NNW 20:47:14 66° ENE 20:52:27 10° SSE
ERBS 3.0 20:46:04 10° NW 20:49:25 45° NE 20:52:42 10° ESE
Cosmos 1455 2.1 20:48:54 10° S 20:52:41 73° E 20:56:28 10° NNE
Cosmos 1869 3.7 20:52:58 10° SSE 20:56:41 42° E 21:00:26 10° NNE
CENTAUR R/B 3.2 20:53:30 10° SW 20:59:32 62° NW 21:06:29 10° NNE
CZ-3B DEB 3.1 20:55:52 10° WNW 20:59:44 23° WSW 21:02:09 10° S
Cosmos 1400 Rocket 3.8 20:58:33 10° NNW 21:02:18 47° W 21:06:04 10° S
Cosmos 2026 Rocket 4.2 20:56:51 10° N 21:02:58 52° ENE 21:08:56 10° SSE
SeaSat 1 4.0 21:00:17 10° E 21:04:01 22° NE 21:07:46 10° N
Cosmos 1697 Rocket 3.7 20:59:06 10° SW 21:04:36 52° WNW 21:10:07 10° NNE
Cosmos 1892 3.9 21:04:41 10° NNW 21:08:19 44° W 21:11:56 10° SSW
CZ-4B DEB 4.5 21:06:25 10° SSE 21:09:58 79° ENE 21:13:32 10° N
Cosmos 1315 Rocket 3.2 21:10:41 10° NNW 21:14:46 68° W 21:18:46 10° S
USA 186 2.6 21:12:25 10° S 21:14:58 43° W 21:17:43 10° NNW
Cosmos 1933 4.3 21:14:41 15° SE 21:17:16 27° E 21:20:42 10° NNE
Cosmos 1503 Rocket 4.1 21:13:07 10° NNW 21:18:23 65° ENE 21:22:48 14° SSE
Cosmos 2263 Rocket 2.8 21:15:19 10° NNW 21:20:35 41° ENE 21:24:22 18° ESE
Cosmos 1354 Rocket 4.0 21:16:26 10° NNW 21:21:44 70° ENE 21:26:09 15° SSE
Abrixas rocket 2.1 21:18:35 10° WSW 21:21:53 88° N 21:25:10 10° ENE
Cosmos 1634 Rocket 4.0 21:15:54 10° S 21:22:12 86° E 21:28:34 10° N
YAOGAN 6 3.2 21:20:14 19° SE 21:22:29 40° ENE 21:25:54 10° N
Cosmos 1092 Rocket 4.4 21:16:22 10° NNW 21:22:39 68° W 21:28:55 10° S
Cosmos 1655 Rocket 4.1 21:18:26 10° N 21:24:48 62° E 21:30:50 11° SSE
Cosmos 1707 Rocket 4.2 21:20:41 10° SSW 21:25:05 61° W 21:29:28 10° N
Cosmos 2322 Rocket 2.3 21:19:45 10° S 21:25:10 53° ESE 21:30:38 10° NE
H-2A R/B 3.7 21:24:03 13° E 21:26:13 16° ENE 21:29:14 10° NNE
Cosmos 1733 Rocket 3.2 21:26:55 10° N 21:31:20 59° E 21:34:27 19° SSE
Meteor 1-29 3.1 21:30:10 10° N 21:33:40 79° WNW 21:37:07 10° SSW
Helios 1B rocket 2.8 21:30:07 10° N 21:34:12 68° WNW 21:38:16 10° SSW
Meteor 2-10 Rocket 4.4 21:30:48 17° SE 21:34:39 35° E 21:39:50 10° NNE
USA 267 4.5 21:29:45 10° NE 21:35:50 43° NNW 21:41:55 10° W
Cosmos 2360 Rocket 3.1 21:34:16 20° SE 21:36:27 26° ESE 21:41:02 10° NE
Lacrosse 4 Rocket 1.4 21:32:45 10° NNW 21:37:04 80° ENE 21:39:39 24° SE
Cosmos 1980 Rocket 3.3 21:31:40 10° SW 21:37:09 48° WNW 21:42:41 10° NNE
Cosmos 1862 Rocket 3.7 21:34:03 12° S 21:37:59 54° E 21:42:22 10° NNE
Intercosmos 25 Rocket 3.0 21:36:34 10° S 21:39:43 87° W 21:43:36 10° N
Cosmos 1825 2.2 21:36:36 10° N 21:40:25 77° W 21:43:20 16° S
Cosmos 1862 3.2 21:37:42 10° N 21:41:44 73° E 21:44:08 23° SSE
Cosmos 968 Rocket 4.3 21:39:23 10° N 21:44:08 35° ENE 21:46:23 24° ESE
NOAA 11 4.5 21:42:49 23° SE 21:46:03 52° ENE 21:51:23 10° N
Envisat 3.7 21:43:46 10° S 21:48:43 53° W 21:53:42 10° NNW
Cosmos 1939 Rocket 3.5 21:45:35 12° S 21:49:17 53° W 21:53:14 10° NNW
Cosmos 2266 Rocket 4.5 21:44:46 10° N 21:50:43 43° ENE 21:53:45 26° SE
CZ-4B DEB 4.3 21:48:16 11° SSW 21:50:48 31° W 21:53:35 10° NNW
Cosmos 2242 Rocket 4.0 21:47:15 10° SSW 21:51:45 66° W 21:56:14 10° N
YAOGAN 11 4.4 21:50:13 31° SE 21:51:58 50° ENE 21:56:12 10° N
SL-16 R/B 2.1 21:46:27 10° SSW 21:52:07 85° ESE 21:57:50 10° NNE
Okean 1-7 4.5 21:55:18 21° E 21:55:18 21° E 21:58:14 10° NE
SPOT 5 3.2 21:54:50 31° SE 21:56:46 48° ENE 22:01:17 10° N
Cosmos 1703 Rocket 4.3 21:57:22 33° ESE 21:57:50 34° E 22:01:50 10° NNE
ATLAS 5 CENTAUR R/B 2.7 21:57:00 10° NNW 22:02:51 57° NE 22:05:54 30° ESE
Cosmos 2279 Rocket 4.1 21:58:23 10° SSW 22:04:38 76° W 22:10:53 10° N
MetOp-B 4.1 22:03:13 30° SSE 22:05:54 75° ENE 22:11:16 10° N
OAO 3 Rocket 4.1 22:02:36 10° WSW 22:06:54 30° S 22:07:08 30° S
Meteor 1-26 Rocket 4.3 22:06:23 28° SSE 22:09:17 58° E 22:14:57 10° NNE
USA 234 4.0 22:07:22 21° S 22:11:26 43° SW 22:17:37 10° WNW
Cosmos 2278 Rocket 4.3 22:08:55 10° NNE 22:11:41 14° NE 22:14:18 10° ENE
SPOT 1/Viking Rocket 3.9 22:11:28 37° ESE 22:13:04 50° ENE 22:18:06 10° N
Cosmos 489 Rocket 4.5 22:07:22 10° NNW 22:13:44 75° ENE 22:16:37 35° SSE
ARGOS 3.1 22:11:51 37° SE 22:13:58 68° ENE 22:19:18 10° N
Atlas Centaur 2 3.9 22:10:44 10° SW 22:16:52 26° SSE 22:16:54 26° SSE
BREEZE-M DEB (TANK) 4.2 22:19:17 10° W 22:23:10 73° N 22:36:35 10° E
Cosmos 1844 Rocket 3.7 22:19:22 10° N 22:24:20 31° NE 22:25:44 28° E
ERS-1 Rocket 3.7 22:22:11 22° SSW 22:25:10 49° W 22:30:03 10° NNW
ERBS 4.4 22:23:17 10° WNW 22:25:52 20° SW 22:26:02 20° SW
MOS 1-B Rocket 3.8 22:26:13 38° SSE 22:28:39 82° ENE 22:34:20 10° NNW
Sich 1 Rocket 3.7 22:25:53 10° NNW 22:30:21 74° W 22:31:27 50° SSW
Meteor 1-14 Rocket 4.2 22:34:48 10° NNW 22:40:28 85° W 22:42:12 47° S
SeaSat 1 2.7 22:39:59 48° S 22:41:09 63° WSW 22:46:04 10° NNW
Cosmos 1777 Rocket 4.2 22:37:15 10° NNW 22:42:27 55° ENE 22:43:02 52° E
Cosmos 2219 Rocket 3.9 22:45:20 18° ENE 22:45:20 18° ENE 22:47:15 10° NE
H-2A R/B 2.6 22:44:20 46° NE 22:44:20 46° NE 22:48:05 10° N
Cosmos 1908 Rocket 4.3 22:43:13 10° NNW 22:47:23 47° W 22:48:15 40° SW
Landsat 7 3.7 22:50:09 71° E 22:50:17 71° ENE 22:55:02 10° N
Milstar 3 4.3 22:47:28 10° SW 22:50:57 17° SSW 22:50:57 17° SSW
USA 229 DEB 3.5 22:51:56 30° SSW 22:55:32 70° ESE 23:02:27 10° NE
USA 229 3.5 22:52:12 31° SSW 22:55:38 69° ESE 23:02:32 10° NE
Cosmos 2237 4.1 22:55:26 66° SE 22:55:46 67° ESE 23:01:28 10° NNE
DMSP B5D2-2 4.1 22:53:25 10° NNE 22:58:26 63° E 22:58:26 63° E
Abrixas rocket 4.2 22:55:52 10° WNW 22:58:01 29° NW 22:58:01 29° NW
Meteor 1-25 Rocket 4.1 22:54:11 10° NNW 22:59:48 80° W 23:00:42 63° SSW
Cosmos 1782 Rocket 3.9 22:57:02 10° NNW 23:01:19 58° W 23:01:20 58° W
Okean 2 Rocket 3.2 22:57:18 10° N 23:01:36 77° NW 23:01:36 77° NW
Cosmos 1867 3.6 22:57:29 10° NW 23:02:53 65° WSW 23:03:20 62° SSW
Cosmos 2263 Rocket 3.5 22:59:32 10° NW 23:04:20 30° WSW 23:06:05 25° SW
COSMOS 2428 2.8 23:05:01 57° E 23:05:01 57° E 23:10:01 10° NNE
H-2A R/B 2.0 23:04:41 64° SW 23:05:06 68° WSW 23:10:05 10° NNW
Terra 1.9 23:05:46 67° NE 23:05:46 67° NE 23:10:10 10° N
Cosmos 2322 Rocket 4.2 23:04:53 10° WSW 23:09:32 26° NW 23:14:14 10° N
IGS 5A 4.2 23:11:39 48° N 23:11:39 48° N 23:14:45 10° N
Lacrosse 4 Rocket 4.2 23:14:15 10° W 23:15:09 11° WSW 23:16:01 10° WSW
Cosmos 2360 Rocket 3.0 23:15:51 16° SW 23:20:08 49° WNW 23:25:39 10° NNE
Meteor 1-20 Rocket 4.5 23:16:18 10° NNW 23:21:46 59° W 23:22:21 56° WSW
Cosmos 1844 3.7 23:18:09 10° NNW 23:23:44 67° NE 23:23:44 67° NE
Cosmos 1417 Rocket 4.3 23:23:45 75° SE 23:24:04 78° E 23:30:26 10° N
Cosmos 1745 Rocket 4.2 23:18:22 10° N 23:24:36 57° ENE 23:24:42 57° E
Cosmos 2322 4.4 23:22:28 24° SW 23:25:42 52° WNW 23:31:17 10° NNE
Geosat 4.1 23:23:07 10° NNE 23:28:08 72° WNW 23:28:09 72° WNW
deb Chang Zheng 4 4.4 23:24:37 10° N 23:27:54 49° N 23:27:54 49° N
ASTEX 1 3.6 23:30:23 69° NW 23:30:23 69° NW 23:34:51 10° N
Meteor 2-6 Rocket 4.2 23:31:38 83° SW 23:31:50 85° W 23:37:51 10° N
Okean 1-7 4.4 23:32:09 34° WNW 23:32:15 34° WNW 23:36:19 10° N
Cosmos 1782 4.4 23:34:53 35° NNW 23:34:53 35° NNW 23:37:31 10° N
Cosmos 2151 Rocket 4.5 23:30:37 10° NNW 23:33:51 47° NNW 23:33:51 47° NNW
CZ-4B R/B 4.1 23:38:27 10° NNE 23:41:50 47° NNE 23:41:50 47° NNE
CZ-4C R/B 3.3 23:36:28 10° NNW 23:43:19 54° NE 23:44:54 46° E
Cosmos 2333 Rocket 3.0 23:46:51 41° NE 23:46:51 41° NE 23:50:44 10° NNE
ATLAS 5 CENTAUR R/B 3.6 23:42:10 10° NW 23:47:24 30° WSW 23:47:28 30° WSW
Cosmos 2333 4.3 23:47:30 71° WNW 23:47:30 71° WNW 23:53:13 10° NNE
Cosmos 2237 Rocket 3.3 23:56:36 33° NE 23:56:36 33° NE 23:59:55 10° NE
